Flag for Russia Weather past 2 weeks in Syktyvkar, Russia

Now
52 °F

Partly sunny.


Feels Like: 51 °F
Forecast: 41 / 57 °F
Wind: 3 mph from Northwest

Location: Syktyvkar Airport

Current Time: Sep 3, 2015 at 2:05:32 PM

Latest Report: Sep 3, 2015 at 1:00 PM


Visibility: N/A

Pressure: 29.89 "Hg

Humidity: 54%

Dew point: 36 °F

Location of SyktyvkarLocation

Historic Weather in Syktyvkar — Graph

°F

Syktyvkar temperature yesterday

Maximum temperature yesterday: 50 °F (at 3:00 PM)
Minimum temperature yesterday: 39 °F (at 4:30 AM)
Average temperature yesterday: 45 °F

Past Weeks' High & Low Weather Summary

 TemperatureHumidityPressure
High72 °F (Aug 21, 12:30 PM)100% (Aug 27, 5:00 AM)30.21 "Hg (Aug 27, 5:00 AM)
Low30 °F (Aug 29, 3:00 AM)28% (Aug 19, 3:00 PM)29.65 "Hg (Sep 1, 11:30 PM)
Average50 °F72%29.94 "Hg
* Reported Aug 19 1:00 PM — Sep 3 1:00 PM, Syktyvkar, Weather by CustomWeather, © 2015

Note: Actual official high and low records may vary slightly from our data, if they occured in-between our weather recording intervals... More about our weather records

Advertising

Syktyvkar weather history for previous 24 hours

 ConditionsComfort  
Time TempWeatherWind HumidityBarometerVisibility
1:00 PM
Thu, Sep 3
52 °FPartly sunny.3 mph54%29.89 "HgN/A
12:00 PM52 °FPartly sunny.6 mph54%29.89 "HgN/A
11:00 AM50 °FPartly sunny.6 mph54%29.89 "HgN/A
10:30 AM50 °FPartly sunny.3 mph50%29.86 "Hg6 mi
10:00 AM50 °FPartly sunny.6 mph50%29.86 "HgN/A
9:30 AM48 °FPartly sunny.3 mph58%29.86 "Hg6 mi
9:00 AM48 °FPartly sunny.3 mph62%29.86 "Hg6 mi
8:30 AM46 °FOvercast.3 mph66%29.86 "HgN/A
8:00 AM45 °FOvercast.3 mph71%29.83 "HgN/A
7:30 AM45 °FPartly sunny.3 mph71%29.83 "HgN/A
7:00 AM43 °FSunny.6 mph71%29.83 "Hg10 mi
6:30 AM43 °FSunny.3 mph71%29.83 "Hg10 mi
6:00 AM41 °FPassing clouds.3 mph76%29.83 "HgN/A
5:30 AM41 °FOvercast.3 mph76%29.80 "HgN/A
5:00 AM41 °FOvercast.3 mph81%29.80 "HgN/A
4:30 AM41 °FOvercast.3 mph81%29.80 "HgN/A
4:00 AM41 °FClear.3 mph81%29.77 "Hg6 mi
3:30 AM41 °FClear.3 mph81%29.77 "Hg6 mi
3:00 AM41 °FPassing clouds.3 mph81%29.77 "HgN/A
2:30 AM41 °FPassing clouds.3 mph81%29.77 "HgN/A
2:00 AM43 °FPassing clouds.3 mph76%29.74 "HgN/A
1:30 AM43 °FPassing clouds.3 mph76%29.74 "HgN/A
1:00 AM43 °FPassing clouds.3 mph81%29.74 "HgN/A
12:30 AM45 °FClear.3 mph76%29.74 "Hg10 mi
12:00 AM45 °FClear.1 mph76%29.74 "Hg10 mi
11:30 PM
Wed, Sep 2
46 °FPassing clouds.3 mph71%29.71 "HgN/A
11:00 PM46 °FPassing clouds.1 mph71%29.71 "HgN/A
10:30 PM46 °FPassing clouds.1 mph71%29.71 "Hg6 mi
10:00 PM46 °FPassing clouds.1 mph71%29.71 "Hg6 mi
9:30 PM48 °FPassing clouds.1 mph66%29.71 "Hg6 mi
9:00 PM48 °FPassing clouds.1 mph66%29.71 "Hg6 mi
8:30 PM48 °FPassing clouds.1 mph66%29.71 "Hg6 mi
8:00 PM48 °FPassing clouds.3 mph66%29.68 "Hg6 mi
7:30 PM48 °FClear.3 mph66%29.68 "Hg6 mi
7:00 PM48 °FClear.3 mph66%29.68 "Hg6 mi
6:30 PM48 °FScattered clouds.1 mph66%29.68 "Hg6 mi
6:00 PM48 °FScattered clouds.1 mph62%29.68 "Hg6 mi
5:30 PM48 °FScattered clouds.3 mph58%29.68 "HgN/A
5:00 PM50 °FScattered clouds.3 mph58%29.68 "HgN/A
4:00 PM50 °FScattered clouds.1 mph62%29.68 "Hg6 mi
3:30 PM50 °FScattered clouds.1 mph62%29.68 "Hg6 mi
3:00 PM50 °FScattered clouds.1 mph62%29.68 "HgN/A
2:30 PM48 °FScattered clouds.1 mph66%29.68 "Hg6 mi
2:00 PM48 °FScattered clouds.3 mph66%29.68 "Hg6 mi
Weather by CustomWeather, © 2015

See weather overviewHow to use our weather pages